TimeEET,TemperatureF,Dew PointF,Humidity,Sea Level PressureIn,VisibilityMPH,Wind Direction,Wind SpeedMPH,Gust SpeedMPH,PrecipitationIn,Events,Conditions,WindDirDegrees,DateUTC
12:50 AM,21.2,8.6,58,30.18,-9999.0,Variable,3.5,-,N/A,,Clear,0,2013-03-06 22:50:00
1:50 AM,21.2,8.6,58,30.18,-9999.0,North,4.6,-,N/A,,Clear,350,2013-03-06 23:50:00
2:00 AM,21,6,39,,6,West,4.6,,,,,280,2013-03-07 00:00:00
2:50 AM,17.6,8.6,68,30.18,-9999.0,Variable,2.3,-,N/A,,Clear,0,2013-03-07 00:50:00
3:50 AM,15.8,8.6,73,30.18,6.2,East,6.9,-,N/A,,Partly Cloudy,80,2013-03-07 01:50:00
4:50 AM,14.0,6.8,73,30.21,6.2,ENE,6.9,-,N/A,,Partly Cloudy,70,2013-03-07 02:50:00
5:50 AM,17.6,8.6,68,30.21,6.2,ENE,3.5,-,N/A,,Partly Cloudy,70,2013-03-07 03:50:00
6:50 AM,19.4,8.6,63,30.24,-9999.0,NE,6.9,-,N/A,,Clear,50,2013-03-07 04:50:00
7:50 AM,23.0,8.6,54,30.27,-9999.0,East,4.6,-,N/A,,Clear,80,2013-03-07 05:50:00
8:00 AM,24,8,36,,12,East,4.6,,,,,80,2013-03-07 06:00:00
8:50 AM,24.8,10.4,54,30.27,-9999.0,SSW,3.5,-,N/A,,Clear,210,2013-03-07 06:50:00
9:50 AM,28.4,12.2,51,30.27,-9999.0,Variable,2.3,-,N/A,,Clear,0,2013-03-07 07:50:00
10:50 AM,26.6,12.2,55,30.27,-9999.0,WNW,4.6,-,N/A,,Clear,290,2013-03-07 08:50:00
11:50 AM,28.4,14.0,55,30.27,6.2,West,4.6,-,N/A,,Partly Cloudy,270,2013-03-07 09:50:00
12:50 PM,28.4,14.0,55,30.24,6.2,WSW,5.8,-,N/A,,Partly Cloudy,250,2013-03-07 10:50:00
1:50 PM,30.2,17.6,60,30.24,6.2,WSW,4.6,-,N/A,,Partly Cloudy,240,2013-03-07 11:50:00
2:00 PM,30,15,41,,6,WSW,4.6,,,,Scattered Clouds,240,2013-03-07 12:00:00
2:50 PM,30.2,14.0,51,30.24,6.2,SW,4.6,-,N/A,,Partly Cloudy,220,2013-03-07 12:50:00
3:50 PM,28.4,17.6,64,30.24,6.2,South,6.9,-,N/A,,Partly Cloudy,180,2013-03-07 13:50:00
4:50 PM,26.6,17.6,69,30.24,6.2,SSE,5.8,-,N/A,,Partly Cloudy,150,2013-03-07 14:50:00
5:50 PM,24.8,17.6,74,30.24,4.3,SE,4.6,-,N/A,,Partly Cloudy,140,2013-03-07 15:50:00
6:50 PM,23.0,15.8,74,30.27,3.7,East,3.5,-,N/A,,Partly Cloudy,80,2013-03-07 16:50:00
7:50 PM,21.2,15.8,80,30.27,5.0,Variable,2.3,-,N/A,,Partly Cloudy,0,2013-03-07 17:50:00
8:00 PM,22,16,69,,5,ESE,2.3,,,,Mist,120,2013-03-07 18:00:00
8:50 PM,19.4,12.2,74,30.27,6.2,NE,6.9,-,N/A,,Partly Cloudy,40,2013-03-07 18:50:00
9:50 PM,21.2,14.0,74,30.27,6.2,ESE,3.5,-,N/A,,Partly Cloudy,120,2013-03-07 19:50:00
10:50 PM,17.6,14.0,86,30.24,6.2,ENE,3.5,-,N/A,,Partly Cloudy,60,2013-03-07 20:50:00
11:50 PM,19.4,10.4,68,30.24,6.2,East,6.9,-,N/A,,Partly Cloudy,80,2013-03-07 21:50:00